CUBEBUG-2 (LO-74)

Last updated on Mon Sep 15 2025 00:03:09 GMT+0000 (Coordinated Universal Time)

1 39440U 13066AA 25257.29724344 .00002241 00000+0 22700-3 0 9994 2 39440 97.8551 201.2574 0059892 219.5147 140.1697 14.90661733635844
UTC large
Height (km)
Speed (km/s)
/
Latitude / Longitude
Inclination (degrees)
Orbital Period (minutes)
Azimuth
Elevation
Range (km)
Doppler Factor

Next 0 passes for location: London (51.5072 / 0.1276)

Sorry there are no passes over London.